Year,Month,Day,Hour,Minute,Value (Times are PST for temperature in C)
2012,03,17,00,00,1.00
2012,03,17,00,01,1.00
2012,03,17,00,02,0.90
2012,03,17,00,03,0.90
2012,03,17,00,04,0.90
2012,03,17,00,05,0.90
2012,03,17,00,06,0.90
2012,03,17,00,07,1.00
2012,03,17,00,08,1.10
2012,03,17,00,09,1.20
2012,03,17,00,10,1.30
2012,03,17,00,11,1.40
2012,03,17,00,12,1.40
2012,03,17,00,13,1.50
2012,03,17,00,14,1.60
2012,03,17,00,15,1.60
2012,03,17,00,16,1.60
2012,03,17,00,17,1.60
2012,03,17,00,18,1.60
2012,03,17,00,19,1.70
2012,03,17,00,20,1.70
2012,03,17,00,21,1.70
2012,03,17,00,22,1.70
2012,03,17,00,23,1.70
2012,03,17,00,24,1.70
2012,03,17,00,25,1.70
2012,03,17,00,26,1.70
2012,03,17,00,27,1.70
2012,03,17,00,28,1.70
2012,03,17,00,29,1.70
2012,03,17,00,30,1.70
2012,03,17,00,31,1.70
2012,03,17,00,32,1.70
2012,03,17,00,33,1.70
2012,03,17,00,34,1.70
2012,03,17,00,35,1.70
2012,03,17,00,36,1.70
2012,03,17,00,37,1.70
2012,03,17,00,38,1.70
2012,03,17,00,39,1.70
2012,03,17,00,40,1.70
2012,03,17,00,41,1.70
2012,03,17,00,42,1.70
2012,03,17,00,43,1.70
2012,03,17,00,44,1.70
2012,03,17,00,45,1.70
2012,03,17,00,46,1.70
2012,03,17,00,47,1.70
2012,03,17,00,48,1.70
2012,03,17,00,49,1.70
2012,03,17,00,50,1.80
2012,03,17,00,51,1.80
2012,03,17,00,52,1.80
2012,03,17,00,53,1.80
2012,03,17,00,54,1.80
2012,03,17,00,55,1.90
2012,03,17,00,56,1.90
2012,03,17,00,57,1.90
2012,03,17,00,58,1.90
2012,03,17,00,59,1.90
2012,03,17,01,00,2.00
2012,03,17,01,01,2.00
2012,03,17,01,02,2.00
2012,03,17,01,03,2.00
2012,03,17,01,04,2.10
2012,03,17,01,05,2.10
2012,03,17,01,06,2.10
2012,03,17,01,07,2.10
2012,03,17,01,08,2.10
2012,03,17,01,09,2.10
2012,03,17,01,10,2.20
2012,03,17,01,11,2.20
2012,03,17,01,12,2.20
2012,03,17,01,13,2.20
2012,03,17,01,14,2.20
2012,03,17,01,15,2.20
2012,03,17,01,16,2.20
2012,03,17,01,17,2.30
2012,03,17,01,18,2.30
2012,03,17,01,19,2.30
2012,03,17,01,20,2.30
2012,03,17,01,21,2.30
2012,03,17,01,22,2.30
2012,03,17,01,23,2.30
2012,03,17,01,24,2.40
2012,03,17,01,25,2.40
2012,03,17,01,26,2.40
2012,03,17,01,27,2.40
2012,03,17,01,28,2.40
2012,03,17,01,29,2.40
2012,03,17,01,30,2.40
2012,03,17,01,31,2.40
2012,03,17,01,32,2.40
2012,03,17,01,33,2.40
2012,03,17,01,34,2.50
2012,03,17,01,35,2.50
2012,03,17,01,36,2.50
2012,03,17,01,37,2.50
2012,03,17,01,38,2.50
2012,03,17,01,39,2.60
2012,03,17,01,40,2.60
2012,03,17,01,41,2.60
2012,03,17,01,42,2.60
2012,03,17,01,43,2.60
2012,03,17,01,44,2.60
2012,03,17,01,45,2.60
2012,03,17,01,46,2.60
2012,03,17,01,47,2.60
2012,03,17,01,48,2.60
2012,03,17,01,49,2.60
2012,03,17,01,50,2.70
2012,03,17,01,51,2.70
2012,03,17,01,52,2.70
2012,03,17,01,53,2.70
2012,03,17,01,54,2.70
2012,03,17,01,55,2.70
2012,03,17,01,56,2.80
2012,03,17,01,57,2.80
2012,03,17,01,58,2.80
2012,03,17,01,59,2.80
2012,03,17,02,00,2.80
2012,03,17,02,01,2.80
2012,03,17,02,02,2.90
2012,03,17,02,03,2.90
2012,03,17,02,04,2.90
2012,03,17,02,05,2.90
2012,03,17,02,06,2.90
2012,03,17,02,07,2.90
2012,03,17,02,08,2.90
2012,03,17,02,09,3.00
2012,03,17,02,10,3.00
2012,03,17,02,11,3.00
2012,03,17,02,12,3.00
2012,03,17,02,13,3.00
2012,03,17,02,14,3.00
2012,03,17,02,15,3.10
2012,03,17,02,16,3.10
2012,03,17,02,17,3.10
2012,03,17,02,18,3.10
2012,03,17,02,19,3.10
2012,03,17,02,20,3.10
2012,03,17,02,21,3.10
2012,03,17,02,22,3.10
2012,03,17,02,23,3.10
2012,03,17,02,24,3.10
2012,03,17,02,25,3.10
2012,03,17,02,26,3.10
2012,03,17,02,27,3.10
2012,03,17,02,28,3.10
2012,03,17,02,29,3.10
2012,03,17,02,30,3.10
2012,03,17,02,31,3.10
2012,03,17,02,32,3.10
2012,03,17,02,33,3.10
2012,03,17,02,34,3.10
2012,03,17,02,35,3.10
2012,03,17,02,36,3.10
2012,03,17,02,37,3.10
2012,03,17,02,38,3.10
2012,03,17,02,39,3.10
2012,03,17,02,40,3.10
2012,03,17,02,41,3.10
2012,03,17,02,42,3.20
2012,03,17,02,43,3.20
2012,03,17,02,44,3.20
2012,03,17,02,45,3.20
2012,03,17,02,46,3.30
2012,03,17,02,47,3.30
2012,03,17,02,48,3.30
2012,03,17,02,49,3.30
2012,03,17,02,50,3.30
2012,03,17,02,51,3.30
2012,03,17,02,52,3.40
2012,03,17,02,53,3.40
2012,03,17,02,54,3.40
2012,03,17,02,55,3.40
2012,03,17,02,56,3.40
2012,03,17,02,57,3.40
2012,03,17,02,58,3.40
2012,03,17,02,59,3.40
2012,03,17,03,00,3.50
2012,03,17,03,01,3.50
2012,03,17,03,02,3.50
2012,03,17,03,03,3.60
2012,03,17,03,04,3.60
2012,03,17,03,05,3.60
2012,03,17,03,06,3.60
2012,03,17,03,07,3.60
2012,03,17,03,08,3.60
2012,03,17,03,09,3.60
2012,03,17,03,10,3.60
2012,03,17,03,11,3.70
2012,03,17,03,12,3.70
2012,03,17,03,13,3.70
2012,03,17,03,14,3.70
2012,03,17,03,15,3.70
2012,03,17,03,16,3.70
2012,03,17,03,17,3.70
2012,03,17,03,18,3.80
2012,03,17,03,19,3.80
2012,03,17,03,20,3.80
2012,03,17,03,21,3.80
2012,03,17,03,22,3.80
2012,03,17,03,23,3.80
2012,03,17,03,24,3.80
2012,03,17,03,25,3.80
2012,03,17,03,26,3.80
2012,03,17,03,27,3.90
2012,03,17,03,28,3.90
2012,03,17,03,29,3.90
2012,03,17,03,30,3.90
2012,03,17,03,31,3.90
2012,03,17,03,32,3.90
2012,03,17,03,33,3.90
2012,03,17,03,34,4.00
2012,03,17,03,35,4.00
2012,03,17,03,36,4.00
2012,03,17,03,37,4.00
2012,03,17,03,38,4.00
2012,03,17,03,39,4.00
2012,03,17,03,40,4.10
2012,03,17,03,41,4.10
2012,03,17,03,42,4.10
2012,03,17,03,43,4.10
2012,03,17,03,44,4.10
2012,03,17,03,45,4.10
2012,03,17,03,46,4.10
2012,03,17,03,47,4.10
2012,03,17,03,48,4.10
2012,03,17,03,49,4.10
2012,03,17,03,50,4.10
2012,03,17,03,51,4.10
2012,03,17,03,52,4.10
2012,03,17,03,53,4.10
2012,03,17,03,54,4.10
2012,03,17,03,55,4.10
2012,03,17,03,56,4.10
2012,03,17,03,57,4.00
2012,03,17,03,58,4.00
2012,03,17,03,59,4.00
2012,03,17,04,00,4.00
2012,03,17,04,01,4.00
2012,03,17,04,02,4.00
2012,03,17,04,03,4.00
2012,03,17,04,04,4.00
2012,03,17,04,05,4.00
2012,03,17,04,06,4.00
2012,03,17,04,07,4.00
2012,03,17,04,08,4.00
2012,03,17,04,09,4.00
2012,03,17,04,10,4.00
2012,03,17,04,11,4.00
2012,03,17,04,12,4.00
2012,03,17,04,13,4.00
2012,03,17,04,14,4.00
2012,03,17,04,15,4.00
2012,03,17,04,16,4.00
2012,03,17,04,17,3.90
2012,03,17,04,18,3.90
2012,03,17,04,19,3.90
2012,03,17,04,20,3.90
2012,03,17,04,21,3.90
2012,03,17,04,22,3.90
2012,03,17,04,23,3.90
2012,03,17,04,24,3.90
2012,03,17,04,25,3.90
2012,03,17,04,26,3.90
2012,03,17,04,27,3.90
2012,03,17,04,28,3.90
2012,03,17,04,29,3.90
2012,03,17,04,30,3.90
2012,03,17,04,31,3.90
2012,03,17,04,32,3.90
2012,03,17,04,33,3.90
2012,03,17,04,34,3.90
2012,03,17,04,35,3.90
2012,03,17,04,36,3.90
2012,03,17,04,37,3.90
2012,03,17,04,38,3.80
2012,03,17,04,39,3.90
2012,03,17,04,40,3.80
2012,03,17,04,41,3.80
2012,03,17,04,42,3.90
2012,03,17,04,43,3.90
2012,03,17,04,44,3.90
2012,03,17,04,45,3.90
2012,03,17,04,46,3.90
2012,03,17,04,47,3.90
2012,03,17,04,48,3.80
2012,03,17,04,49,3.80
2012,03,17,04,50,3.80
2012,03,17,04,51,3.90
2012,03,17,04,52,3.80
2012,03,17,04,53,3.90
2012,03,17,04,54,3.90
2012,03,17,04,55,3.90
2012,03,17,04,56,3.90
2012,03,17,04,57,3.90
2012,03,17,04,58,3.90
2012,03,17,04,59,3.90
2012,03,17,05,00,3.90
2012,03,17,05,01,3.90
2012,03,17,05,02,3.90
2012,03,17,05,03,3.90
2012,03,17,05,04,3.90
2012,03,17,05,05,3.90
2012,03,17,05,06,3.90
2012,03,17,05,07,3.90
2012,03,17,05,08,3.90
2012,03,17,05,09,3.90
2012,03,17,05,10,3.90
2012,03,17,05,11,3.90
2012,03,17,05,12,3.90
2012,03,17,05,13,3.90
2012,03,17,05,14,3.90
2012,03,17,05,15,3.90
2012,03,17,05,16,3.90
2012,03,17,05,17,4.00
2012,03,17,05,18,4.00
2012,03,17,05,19,4.00
2012,03,17,05,20,4.00
2012,03,17,05,21,4.00
2012,03,17,05,22,4.00
2012,03,17,05,23,4.10
2012,03,17,05,24,4.10
2012,03,17,05,25,4.10
2012,03,17,05,26,4.20
2012,03,17,05,27,4.20
2012,03,17,05,28,4.20
2012,03,17,05,29,4.20
2012,03,17,05,30,4.20
2012,03,17,05,31,4.30
2012,03,17,05,32,4.30
2012,03,17,05,33,4.30
2012,03,17,05,34,4.30
2012,03,17,05,35,4.30
2012,03,17,05,36,4.30
2012,03,17,05,37,4.30
2012,03,17,05,38,4.30
2012,03,17,05,39,4.30
2012,03,17,05,40,4.30
2012,03,17,05,41,4.30
2012,03,17,05,42,4.30
2012,03,17,05,43,4.30
2012,03,17,05,44,4.30
2012,03,17,05,45,4.30
2012,03,17,05,46,4.30
2012,03,17,05,47,4.30
2012,03,17,05,48,4.30
2012,03,17,05,49,4.30
2012,03,17,05,50,4.30
2012,03,17,05,51,4.30
2012,03,17,05,52,4.30
2012,03,17,05,53,4.30
2012,03,17,05,54,4.30
2012,03,17,05,55,4.40
2012,03,17,05,56,4.40
2012,03,17,05,57,4.40
2012,03,17,05,58,4.40
2012,03,17,05,59,4.40
2012,03,17,06,00,4.40
2012,03,17,06,01,4.40
2012,03,17,06,02,4.40
2012,03,17,06,03,4.40
2012,03,17,06,04,4.40
2012,03,17,06,05,4.40
2012,03,17,06,06,4.40
2012,03,17,06,07,4.40
2012,03,17,06,08,4.40
2012,03,17,06,09,4.40
2012,03,17,06,10,4.40
2012,03,17,06,11,4.40
2012,03,17,06,12,4.40
2012,03,17,06,13,4.40
2012,03,17,06,14,4.40
2012,03,17,06,15,4.40
2012,03,17,06,16,4.40
2012,03,17,06,17,4.40
2012,03,17,06,18,4.40
2012,03,17,06,19,4.40
2012,03,17,06,20,4.30
2012,03,17,06,21,4.30
2012,03,17,06,22,4.30
2012,03,17,06,23,4.30
2012,03,17,06,24,4.30
2012,03,17,06,25,4.20
2012,03,17,06,26,4.20
2012,03,17,06,27,4.20
2012,03,17,06,28,4.20
2012,03,17,06,29,4.20
2012,03,17,06,30,4.20
2012,03,17,06,31,4.20
2012,03,17,06,32,4.20
2012,03,17,06,33,4.20
2012,03,17,06,34,4.20
2012,03,17,06,35,4.20
2012,03,17,06,36,4.20
2012,03,17,06,37,4.20
2012,03,17,06,38,4.10
2012,03,17,06,39,4.10
2012,03,17,06,40,4.10
2012,03,17,06,41,4.10
2012,03,17,06,42,4.10
2012,03,17,06,43,4.10
2012,03,17,06,44,4.10
2012,03,17,06,45,4.00
2012,03,17,06,46,4.00
2012,03,17,06,47,4.00
2012,03,17,06,48,4.00
2012,03,17,06,49,4.00
2012,03,17,06,50,4.00
2012,03,17,06,51,4.10
2012,03,17,06,52,4.00
2012,03,17,06,53,4.10
2012,03,17,06,54,4.00
2012,03,17,06,55,4.00
2012,03,17,06,56,4.00
2012,03,17,06,57,4.00
2012,03,17,06,58,4.00
2012,03,17,06,59,4.00
2012,03,17,07,00,4.00
2012,03,17,07,01,3.90
2012,03,17,07,02,3.90
2012,03,17,07,03,3.90
2012,03,17,07,04,3.90
2012,03,17,07,05,3.90
2012,03,17,07,06,3.90
2012,03,17,07,07,3.80
2012,03,17,07,08,3.80
2012,03,17,07,09,3.80
2012,03,17,07,10,3.80
2012,03,17,07,11,3.80
2012,03,17,07,12,3.80
2012,03,17,07,13,3.80
2012,03,17,07,14,3.80
2012,03,17,07,15,3.70
2012,03,17,07,16,3.70
2012,03,17,07,17,3.70
2012,03,17,07,18,3.70
2012,03,17,07,19,3.80
2012,03,17,07,20,3.80
2012,03,17,07,21,3.80
2012,03,17,07,22,3.80
2012,03,17,07,23,3.80
2012,03,17,07,24,3.80
2012,03,17,07,25,3.80
2012,03,17,07,26,3.80
2012,03,17,07,27,3.80
2012,03,17,07,28,3.80
2012,03,17,07,29,3.80
2012,03,17,07,30,3.80
2012,03,17,07,31,3.80
2012,03,17,07,32,3.80
2012,03,17,07,33,3.80
2012,03,17,07,34,3.80
2012,03,17,07,35,3.80
2012,03,17,07,36,3.80
2012,03,17,07,37,3.80
2012,03,17,07,38,3.80
2012,03,17,07,39,3.80
2012,03,17,07,40,3.80
2012,03,17,07,41,3.80
2012,03,17,07,42,3.80
2012,03,17,07,43,3.80
2012,03,17,07,44,3.80
2012,03,17,07,45,3.80
2012,03,17,07,46,3.80
2012,03,17,07,47,3.80
2012,03,17,07,48,3.80
2012,03,17,07,49,3.70
2012,03,17,07,50,3.70
2012,03,17,07,51,3.70
2012,03,17,07,52,3.70
2012,03,17,07,53,3.70
2012,03,17,07,54,3.70
2012,03,17,07,55,3.60
2012,03,17,07,56,3.60
2012,03,17,07,57,3.60
2012,03,17,07,58,3.60
2012,03,17,07,59,3.60
2012,03,17,08,00,3.60
2012,03,17,08,01,3.60
2012,03,17,08,02,3.60
2012,03,17,08,03,3.60
2012,03,17,08,04,3.60
2012,03,17,08,05,3.60
2012,03,17,08,06,3.60
2012,03,17,08,07,3.60
2012,03,17,08,08,3.60
2012,03,17,08,09,3.60
2012,03,17,08,10,3.60
2012,03,17,08,11,3.50
2012,03,17,08,12,3.50
2012,03,17,08,13,3.50
2012,03,17,08,14,3.40
2012,03,17,08,15,3.40
2012,03,17,08,16,3.40
2012,03,17,08,17,3.40
2012,03,17,08,18,3.40
2012,03,17,08,19,3.40
2012,03,17,08,20,3.30
2012,03,17,08,21,3.30
2012,03,17,08,22,3.30
2012,03,17,08,23,3.30
2012,03,17,08,24,3.30
2012,03,17,08,25,3.30
2012,03,17,08,26,3.30
2012,03,17,08,27,3.30
2012,03,17,08,28,3.30
2012,03,17,08,29,3.30
2012,03,17,08,30,3.30
2012,03,17,08,31,3.30
2012,03,17,08,32,3.30
2012,03,17,08,33,3.30
2012,03,17,08,34,3.30
2012,03,17,08,35,3.30
2012,03,17,08,36,3.30
2012,03,17,08,37,3.30
2012,03,17,08,38,3.40
2012,03,17,08,39,3.40
2012,03,17,08,40,3.30
2012,03,17,08,41,3.30
2012,03,17,08,42,3.30
2012,03,17,08,43,3.30
2012,03,17,08,44,3.30
2012,03,17,08,45,3.30
2012,03,17,08,46,3.30
2012,03,17,08,47,3.30
2012,03,17,08,48,3.30
2012,03,17,08,49,3.30
2012,03,17,08,50,3.30
2012,03,17,08,51,3.30
2012,03,17,08,52,3.20
2012,03,17,08,53,3.20
2012,03,17,08,54,3.20
2012,03,17,08,55,3.20
2012,03,17,08,56,3.20
2012,03,17,08,57,3.20
2012,03,17,08,58,3.20
2012,03,17,08,59,3.20
2012,03,17,09,00,3.30
2012,03,17,09,01,3.30
2012,03,17,09,02,3.30
2012,03,17,09,03,3.40
2012,03,17,09,04,3.40
2012,03,17,09,05,3.50
2012,03,17,09,06,3.50
2012,03,17,09,07,3.60
2012,03,17,09,08,3.60
2012,03,17,09,09,3.70
2012,03,17,09,10,3.70
2012,03,17,09,11,3.80
2012,03,17,09,12,3.90
2012,03,17,09,13,3.90
2012,03,17,09,14,4.00
2012,03,17,09,15,4.10
2012,03,17,09,16,4.10
2012,03,17,09,17,4.20
2012,03,17,09,18,4.20
2012,03,17,09,19,4.30
2012,03,17,09,20,4.40
2012,03,17,09,21,4.40
2012,03,17,09,22,4.40
2012,03,17,09,23,4.50
2012,03,17,09,24,4.50
2012,03,17,09,25,4.60
2012,03,17,09,26,4.60
2012,03,17,09,27,4.70
2012,03,17,09,28,4.70
2012,03,17,09,29,4.70
2012,03,17,09,30,4.70
2012,03,17,09,31,4.80
2012,03,17,09,32,4.80
2012,03,17,09,33,4.80
2012,03,17,09,34,4.80
2012,03,17,09,35,4.80
2012,03,17,09,36,4.80
2012,03,17,09,37,4.90
2012,03,17,09,38,4.90
2012,03,17,09,39,4.90
2012,03,17,09,40,5.00
2012,03,17,09,41,5.00
2012,03,17,09,42,5.10
2012,03,17,09,43,5.10
2012,03,17,09,44,5.10
2012,03,17,09,45,5.10
2012,03,17,09,46,5.20
2012,03,17,09,47,5.20
2012,03,17,09,48,5.20
2012,03,17,09,49,5.30
2012,03,17,09,50,5.30
2012,03,17,09,51,5.30
2012,03,17,09,52,5.40
2012,03,17,09,53,5.40
2012,03,17,09,54,5.50
2012,03,17,09,55,5.50
2012,03,17,09,56,5.60
2012,03,17,09,57,5.60
2012,03,17,09,58,5.60
2012,03,17,09,59,5.60
2012,03,17,10,00,5.60
2012,03,17,10,01,5.60
2012,03,17,10,02,5.60
2012,03,17,10,03,5.70
2012,03,17,10,04,5.70
2012,03,17,10,05,5.70
2012,03,17,10,06,5.70
2012,03,17,10,07,5.80
2012,03,17,10,08,5.80
2012,03,17,10,09,5.80
2012,03,17,10,10,5.80
2012,03,17,10,11,5.80
2012,03,17,10,12,5.80
2012,03,17,10,13,5.70
2012,03,17,10,14,5.70
2012,03,17,10,15,5.70
2012,03,17,10,16,5.60
2012,03,17,10,17,5.60
2012,03,17,10,18,5.60
2012,03,17,10,19,5.60
2012,03,17,10,20,5.50
2012,03,17,10,21,5.50
2012,03,17,10,22,5.40
2012,03,17,10,23,5.40
2012,03,17,10,24,5.50
2012,03,17,10,25,5.50
2012,03,17,10,26,5.50
2012,03,17,10,27,5.60
2012,03,17,10,28,5.50
2012,03,17,10,29,5.50
2012,03,17,10,30,5.50
2012,03,17,10,31,5.40
2012,03,17,10,32,5.40
2012,03,17,10,33,5.40
2012,03,17,10,34,5.50
2012,03,17,10,35,5.50
2012,03,17,10,36,5.50
2012,03,17,10,37,5.50
2012,03,17,10,38,5.50
2012,03,17,10,39,5.50
2012,03,17,10,40,5.50
2012,03,17,10,41,5.60
2012,03,17,10,42,5.60
2012,03,17,10,43,5.70
2012,03,17,10,44,5.70
2012,03,17,10,45,5.60
2012,03,17,10,46,5.70
2012,03,17,10,47,5.70
2012,03,17,10,48,5.70
2012,03,17,10,49,5.70
2012,03,17,10,50,5.70
2012,03,17,10,51,5.80
2012,03,17,10,52,5.80
2012,03,17,10,53,5.80
2012,03,17,10,54,5.80
2012,03,17,10,55,5.80
2012,03,17,10,56,5.90
2012,03,17,10,57,5.90
2012,03,17,10,58,5.90
2012,03,17,10,59,5.90
2012,03,17,11,00,5.90
2012,03,17,11,01,5.90
2012,03,17,11,02,5.90
2012,03,17,11,03,5.90
2012,03,17,11,04,5.90
2012,03,17,11,05,5.90
2012,03,17,11,06,6.00
2012,03,17,11,07,6.00
2012,03,17,11,08,5.90
2012,03,17,11,09,5.90
2012,03,17,11,10,5.80
2012,03,17,11,11,5.80
2012,03,17,11,12,5.90
2012,03,17,11,13,5.90
2012,03,17,11,14,5.90
2012,03,17,11,15,5.90
2012,03,17,11,16,5.90
2012,03,17,11,17,5.90
2012,03,17,11,18,5.90
2012,03,17,11,19,5.90
2012,03,17,11,20,5.90
2012,03,17,11,21,5.90
2012,03,17,11,22,6.00
2012,03,17,11,23,6.00
2012,03,17,11,24,6.10
2012,03,17,11,25,6.10
2012,03,17,11,26,6.10
2012,03,17,11,27,6.10
2012,03,17,11,28,6.10
2012,03,17,11,29,6.10
2012,03,17,11,30,6.00
2012,03,17,11,31,6.00
2012,03,17,11,32,6.00
2012,03,17,11,33,6.00
2012,03,17,11,34,6.00
2012,03,17,11,35,6.00
2012,03,17,11,36,6.00
2012,03,17,11,37,6.10
2012,03,17,11,38,6.10
2012,03,17,11,39,6.10
2012,03,17,11,40,6.10
2012,03,17,11,41,6.10
2012,03,17,11,42,6.10
2012,03,17,11,43,6.00
2012,03,17,11,44,6.00
2012,03,17,11,45,6.00
2012,03,17,11,46,6.00
2012,03,17,11,47,6.00
2012,03,17,11,48,6.10
2012,03,17,11,49,6.10
2012,03,17,11,50,6.10
2012,03,17,11,51,6.10
2012,03,17,11,52,6.10
2012,03,17,11,53,6.10
2012,03,17,11,54,6.10
2012,03,17,11,55,6.20
2012,03,17,11,56,6.20
2012,03,17,11,57,6.30
2012,03,17,11,58,6.30
2012,03,17,11,59,6.30
2012,03,17,12,00,6.30
2012,03,17,12,01,6.30
2012,03,17,12,02,6.30
2012,03,17,12,03,6.20
2012,03,17,12,04,6.20
2012,03,17,12,05,6.20
2012,03,17,12,06,6.20
2012,03,17,12,07,6.10
2012,03,17,12,08,6.10
2012,03,17,12,09,6.10
2012,03,17,12,10,6.10
2012,03,17,12,11,6.10
2012,03,17,12,12,6.10
2012,03,17,12,13,6.10
2012,03,17,12,14,6.10
2012,03,17,12,15,6.10
2012,03,17,12,16,6.10
2012,03,17,12,17,6.10
2012,03,17,12,18,6.10
2012,03,17,12,19,6.10
2012,03,17,12,20,6.00
2012,03,17,12,21,6.00
2012,03,17,12,22,6.00
2012,03,17,12,23,5.90
2012,03,17,12,24,6.00
2012,03,17,12,25,5.90
2012,03,17,12,26,6.00
2012,03,17,12,27,6.00
2012,03,17,12,28,5.90
2012,03,17,12,29,5.90
2012,03,17,12,30,6.00
2012,03,17,12,31,6.00
2012,03,17,12,32,6.00
2012,03,17,12,33,6.00
2012,03,17,12,34,6.10
2012,03,17,12,35,6.10
2012,03,17,12,36,6.20
2012,03,17,12,37,6.30
2012,03,17,12,38,6.30
2012,03,17,12,39,6.30
2012,03,17,12,40,6.30
2012,03,17,12,41,6.30
2012,03,17,12,42,6.20
2012,03,17,12,43,6.10
2012,03,17,12,44,6.10
2012,03,17,12,45,6.10
2012,03,17,12,46,6.10
2012,03,17,12,47,6.10
2012,03,17,12,48,6.10
2012,03,17,12,49,6.10
2012,03,17,12,50,6.20
2012,03,17,12,51,6.20
2012,03,17,12,52,6.30
2012,03,17,12,53,6.30
2012,03,17,12,54,6.30
2012,03,17,12,55,6.30
2012,03,17,12,56,6.30
2012,03,17,12,57,6.40
2012,03,17,12,58,6.40
2012,03,17,12,59,6.40
2012,03,17,13,00,6.40
2012,03,17,13,01,6.40
2012,03,17,13,02,6.40
2012,03,17,13,03,6.50
2012,03,17,13,04,6.50
2012,03,17,13,05,6.40
2012,03,17,13,06,6.30
2012,03,17,13,07,6.30
2012,03,17,13,08,6.30
2012,03,17,13,09,6.20
2012,03,17,13,10,6.20
2012,03,17,13,11,6.20
2012,03,17,13,12,6.20
2012,03,17,13,13,6.30
2012,03,17,13,14,6.30
2012,03,17,13,15,6.30
2012,03,17,13,16,6.30
2012,03,17,13,17,6.30
2012,03,17,13,18,6.30
2012,03,17,13,19,6.40
2012,03,17,13,20,6.40
2012,03,17,13,21,6.50
2012,03,17,13,22,6.60
2012,03,17,13,23,6.60
2012,03,17,13,24,6.60
2012,03,17,13,25,6.60
2012,03,17,13,26,6.60
2012,03,17,13,27,6.60
2012,03,17,13,28,6.60
2012,03,17,13,29,6.60
2012,03,17,13,30,6.60
2012,03,17,13,31,6.60
2012,03,17,13,32,6.70
2012,03,17,13,33,6.70
2012,03,17,13,34,6.70
2012,03,17,13,35,6.70
2012,03,17,13,36,6.80
2012,03,17,13,37,6.80
2012,03,17,13,38,6.80
2012,03,17,13,39,6.70
2012,03,17,13,40,6.70
2012,03,17,13,41,6.60
2012,03,17,13,42,6.60
2012,03,17,13,43,6.60
2012,03,17,13,44,6.70
2012,03,17,13,45,6.70
2012,03,17,13,46,6.80
2012,03,17,13,47,6.80
2012,03,17,13,48,6.80
2012,03,17,13,49,6.80
2012,03,17,13,50,6.80
2012,03,17,13,51,6.80
2012,03,17,13,52,6.70
2012,03,17,13,53,6.70
2012,03,17,13,54,6.70
2012,03,17,13,55,6.70
2012,03,17,13,56,6.70
2012,03,17,13,57,6.70
2012,03,17,13,58,6.70
2012,03,17,13,59,6.70
2012,03,17,14,00,6.80
2012,03,17,14,01,6.80
2012,03,17,14,02,6.70
2012,03,17,14,03,6.60
2012,03,17,14,04,6.50
2012,03,17,14,05,6.50
2012,03,17,14,06,6.50
2012,03,17,14,07,6.40
2012,03,17,14,08,6.40
2012,03,17,14,09,6.40
2012,03,17,14,10,6.40
2012,03,17,14,11,6.40
2012,03,17,14,12,6.50
2012,03,17,14,13,6.50
2012,03,17,14,14,6.60
2012,03,17,14,15,6.60
2012,03,17,14,16,6.60
2012,03,17,14,17,6.60
2012,03,17,14,18,6.60
2012,03,17,14,19,6.60
2012,03,17,14,20,6.60
2012,03,17,14,21,6.60
2012,03,17,14,22,6.60
2012,03,17,14,23,6.50
2012,03,17,14,24,6.50
2012,03,17,14,25,6.50
2012,03,17,14,26,6.50
2012,03,17,14,27,6.50
2012,03,17,14,28,6.40
2012,03,17,14,29,6.40
2012,03,17,14,30,6.50
2012,03,17,14,31,6.50
2012,03,17,14,32,6.50
2012,03,17,14,33,6.50
2012,03,17,14,34,6.50
2012,03,17,14,35,6.60
2012,03,17,14,36,6.60
2012,03,17,14,37,6.60
2012,03,17,14,38,6.60
2012,03,17,14,39,6.60
2012,03,17,14,40,6.60
2012,03,17,14,41,6.60
2012,03,17,14,42,6.60
2012,03,17,14,43,6.60
2012,03,17,14,44,6.60
2012,03,17,14,45,6.60
2012,03,17,14,46,6.60
2012,03,17,14,47,6.50
2012,03,17,14,48,6.50
2012,03,17,14,49,6.50
2012,03,17,14,50,6.50
2012,03,17,14,51,6.50
2012,03,17,14,52,6.60
2012,03,17,14,53,6.70
2012,03,17,14,54,6.80
2012,03,17,14,55,6.80
2012,03,17,14,56,6.80
2012,03,17,14,57,6.80
2012,03,17,14,58,6.90
2012,03,17,14,59,7.00
2012,03,17,15,00,7.00
2012,03,17,15,01,7.00
2012,03,17,15,02,7.00
2012,03,17,15,03,7.00
2012,03,17,15,04,7.00
2012,03,17,15,05,7.10
2012,03,17,15,06,7.20
2012,03,17,15,07,7.30
2012,03,17,15,08,7.30
2012,03,17,15,09,7.30
2012,03,17,15,10,7.20
2012,03,17,15,11,7.20
2012,03,17,15,12,7.20
2012,03,17,15,13,7.20
2012,03,17,15,14,7.10
2012,03,17,15,15,7.10
2012,03,17,15,16,7.00
2012,03,17,15,17,7.00
2012,03,17,15,18,7.00
2012,03,17,15,19,7.00
2012,03,17,15,20,7.00
2012,03,17,15,21,7.10
2012,03,17,15,22,7.10
2012,03,17,15,23,7.10
2012,03,17,15,24,7.00
2012,03,17,15,25,7.00
2012,03,17,15,26,7.00
2012,03,17,15,27,7.00
2012,03,17,15,28,6.90
2012,03,17,15,29,6.90
2012,03,17,15,30,7.00
2012,03,17,15,31,7.00
2012,03,17,15,32,7.10
2012,03,17,15,33,7.10
2012,03,17,15,34,7.10
2012,03,17,15,35,7.10
2012,03,17,15,36,7.20
2012,03,17,15,37,7.20
2012,03,17,15,38,7.20
2012,03,17,15,39,7.20
2012,03,17,15,40,7.20
2012,03,17,15,41,7.10
2012,03,17,15,42,7.10
2012,03,17,15,43,7.10
2012,03,17,15,44,7.20
2012,03,17,15,45,7.20
2012,03,17,15,46,7.20
2012,03,17,15,47,7.20
2012,03,17,15,48,7.20
2012,03,17,15,49,7.20
2012,03,17,15,50,7.20
2012,03,17,15,51,7.30
2012,03,17,15,52,7.30
2012,03,17,15,53,7.30
2012,03,17,15,54,7.20
2012,03,17,15,55,7.20
2012,03,17,15,56,7.20
2012,03,17,15,57,7.20
2012,03,17,15,58,7.20
2012,03,17,15,59,7.20
2012,03,17,16,00,7.20
2012,03,17,16,01,7.20
2012,03,17,16,02,7.20
2012,03,17,16,03,7.20
2012,03,17,16,04,7.30
2012,03,17,16,05,7.30
2012,03,17,16,06,7.30
2012,03,17,16,07,7.20
2012,03,17,16,08,7.20
2012,03,17,16,09,7.20
2012,03,17,16,10,7.20
2012,03,17,16,11,7.10
2012,03,17,16,12,7.10
2012,03,17,16,13,7.10
2012,03,17,16,14,7.00
2012,03,17,16,15,7.00
2012,03,17,16,16,6.90
2012,03,17,16,17,6.90
2012,03,17,16,18,6.90
2012,03,17,16,19,6.90
2012,03,17,16,20,7.00
2012,03,17,16,21,7.00
2012,03,17,16,22,7.10
2012,03,17,16,23,7.10
2012,03,17,16,24,7.20
2012,03,17,16,25,7.20
2012,03,17,16,26,7.30
2012,03,17,16,27,7.30
2012,03,17,16,28,7.20
2012,03,17,16,29,7.20
2012,03,17,16,30,7.20
2012,03,17,16,31,7.20
2012,03,17,16,32,7.20
2012,03,17,16,33,7.20
2012,03,17,16,34,7.10
2012,03,17,16,35,7.10
2012,03,17,16,36,7.10
2012,03,17,16,37,7.00
2012,03,17,16,38,7.00
2012,03,17,16,39,7.00
2012,03,17,16,40,7.00
2012,03,17,16,41,7.10
2012,03,17,16,42,7.10
2012,03,17,16,43,7.20
2012,03,17,16,44,7.20
2012,03,17,16,45,7.20
2012,03,17,16,46,7.30
2012,03,17,16,47,7.30
2012,03,17,16,48,7.30
2012,03,17,16,49,7.20
2012,03,17,16,50,7.20
2012,03,17,16,51,7.20
2012,03,17,16,52,7.20
2012,03,17,16,53,7.20
2012,03,17,16,54,7.20
2012,03,17,16,55,7.20
2012,03,17,16,56,7.20
2012,03,17,16,57,7.20
2012,03,17,16,58,7.30
2012,03,17,16,59,7.30
2012,03,17,17,00,7.30
2012,03,17,17,01,7.30
2012,03,17,17,02,7.40
2012,03,17,17,03,7.40
2012,03,17,17,04,7.30
2012,03,17,17,05,7.30
2012,03,17,17,06,7.30
2012,03,17,17,07,7.30
2012,03,17,17,08,7.20
2012,03,17,17,09,7.20
2012,03,17,17,10,7.10
2012,03,17,17,11,7.10
2012,03,17,17,12,7.10
2012,03,17,17,13,7.10
2012,03,17,17,14,7.10
2012,03,17,17,15,7.10
2012,03,17,17,16,7.00
2012,03,17,17,17,6.90
2012,03,17,17,18,6.90
2012,03,17,17,19,6.80
2012,03,17,17,20,6.80
2012,03,17,17,21,6.80
2012,03,17,17,22,6.80
2012,03,17,17,23,6.70
2012,03,17,17,24,6.70
2012,03,17,17,25,6.80
2012,03,17,17,26,6.80
2012,03,17,17,27,6.80
2012,03,17,17,28,6.80
2012,03,17,17,29,6.80
2012,03,17,17,30,6.80
2012,03,17,17,31,6.80
2012,03,17,17,32,6.90
2012,03,17,17,33,6.90
2012,03,17,17,34,6.90
2012,03,17,17,35,6.90
2012,03,17,17,36,6.90
2012,03,17,17,37,6.90
2012,03,17,17,38,6.90
2012,03,17,17,39,6.90
2012,03,17,17,40,6.90
2012,03,17,17,41,6.80
2012,03,17,17,42,6.80
2012,03,17,17,43,6.80
2012,03,17,17,44,6.80
2012,03,17,17,45,6.80
2012,03,17,17,46,6.70
2012,03,17,17,47,6.70
2012,03,17,17,48,6.70
2012,03,17,17,49,6.60
2012,03,17,17,50,6.60
2012,03,17,17,51,6.50
2012,03,17,17,52,6.40
2012,03,17,17,53,6.40
2012,03,17,17,54,6.30
2012,03,17,17,55,6.20
2012,03,17,17,56,6.20
2012,03,17,17,57,6.20
2012,03,17,17,58,6.20
2012,03,17,17,59,6.20
2012,03,17,18,00,6.10
2012,03,17,18,01,6.10
2012,03,17,18,02,6.00
2012,03,17,18,03,6.00
2012,03,17,18,04,6.00
2012,03,17,18,05,5.90
2012,03,17,18,06,5.90